Location: Chassagnes
(44.4047°N, 4.1657°E)
Time: 13:04:58
(UTC+00:00)

CSL-04 Debris - Pass Details

Date: 27 October 2020
Orbit: 827 x 848 km, 98.9° (Epoch: 23 November)

Event Time Altitude Azimuth Distance (km) Brightness Sun altitude
Rises 18:07:06 0° 149° (SSE) 3,371 7.0 -16.2°
Reaches altitude 10° 18:09:29 10° 144° (SE) 2,444 6.3 -16.7°
Maximum altitude 18:14:43 52° 69° (ENE) 1,041 4.3 -17.6°
Drops below altitude 10° 18:20:01 10° 355° (N) 2,473 6.7 -18.5°
Sets 18:22:26 0° 351° (N) 3,415 7.5 -19.0°
